Flag for United Kingdom Weather past 2 weeks in Plymouth, England, United Kingdom

Now
43 °F

Passing clouds.


Feels Like: 36 °F
Forecast: 44 / 50 °F
Wind: 14 mph from Northwest

Location: Exeter Airport

Current Time: Mar 31, 2015 at 11:48:21 PM

Latest Report: Mar 31, 2015 at 11:20 PM


Visibility: N/A

Pressure: 30.21 "Hg

Humidity: 76%

Dew point: 36 °F

Location of PlymouthLocation

Historic Weather in Plymouth — Graph

°F

Plymouth temperature yesterday

Maximum temperature yesterday: 55 °F (at 7:20 PM)
Minimum temperature yesterday: 43 °F (at 5:50 AM)
Average temperature yesterday: 50 °F

Past Weeks' High & Low Weather Summary

 TemperatureHumidityPressure
High57 °F (Mar 28, 12:20 PM)100% (Mar 17, 5:50 AM)30.54 "Hg (Mar 17, 5:50 AM)
Low30 °F (Mar 19, 2:50 AM)50% (Mar 25, 1:20 PM)29.53 "Hg (Mar 26, 6:20 AM)
Average46 °F78%30.09 "Hg
* Reported Mar 16 9:20 PM — Mar 31 10:20 PM, Plymouth, Weather by CustomWeather, © 2015

Note: Actual official high and low records may vary slightly from our data, if they occured in-between our weather recording intervals... More about our weather records

Advertising

Plymouth weather history for previous 24 hours

 ConditionsComfort  
Time TempWeatherWind HumidityBarometerVisibility
10:20 PM
Tue, Mar 31
45 °FPassing clouds.16 mph71%30.18 "HgN/A
9:50 PM45 °FSprinkles. Passing clouds.18 mph71%30.18 "HgN/A
9:20 PM46 °FPassing clouds.15 mph66%30.15 "HgN/A
8:50 PM46 °FPassing clouds.17 mph71%30.15 "HgN/A
8:20 PM46 °FPassing clouds.18 mph66%30.15 "HgN/A
7:50 PM46 °FPassing clouds.22 mph62%30.12 "HgN/A
7:20 PM48 °FPassing clouds.21 mph62%30.12 "HgN/A
6:50 PM48 °FPassing clouds.18 mph62%30.12 "HgN/A
6:20 PM50 °FPassing clouds.21 mph58%30.09 "HgN/A
5:50 PM50 °FPassing clouds.24 mph54%30.09 "HgN/A
5:20 PM52 °FPassing clouds.23 mph54%30.07 "HgN/A
4:50 PM50 °FScattered clouds.23 mph58%30.07 "HgN/A
4:20 PM52 °FScattered clouds.29 mph54%30.07 "HgN/A
3:50 PM52 °FScattered clouds.25 mph54%30.07 "HgN/A
3:20 PM52 °FScattered clouds.25 mph54%30.07 "HgN/A
2:50 PM54 °FScattered clouds.28 mph51%30.04 "HgN/A
2:20 PM52 °FScattered clouds.23 mph58%30.04 "HgN/A
1:50 PM50 °FScattered showers. Scattered clouds.23 mph62%30.04 "HgN/A
1:20 PM50 °FScattered showers. Scattered clouds.23 mph62%30.04 "HgN/A
12:50 PM52 °FScattered clouds.21 mph58%30.04 "HgN/A
12:20 PM52 °FScattered clouds.24 mph58%30.01 "HgN/A
11:50 AM52 °FScattered clouds.24 mph58%30.01 "HgN/A
11:20 AM52 °FScattered clouds.23 mph62%29.98 "HgN/A
10:50 AM52 °FScattered clouds.22 mph62%29.95 "HgN/A
10:20 AM50 °FScattered clouds.26 mph67%29.92 "HgN/A
9:50 AM50 °FScattered clouds.23 mph67%29.92 "HgN/A
9:20 AM50 °FScattered clouds.23 mph67%29.89 "HgN/A
8:50 AM48 °FScattered clouds.28 mph71%29.86 "HgN/A
8:20 AM50 °FPartly sunny.26 mph67%29.80 "HgN/A
7:50 AM50 °FPassing clouds.25 mph67%29.80 "HgN/A
7:20 AM48 °FPassing clouds.29 mph71%29.77 "HgN/A
6:50 AM48 °FPassing clouds.22 mph71%29.74 "HgN/A
6:20 AM50 °FPassing clouds.29 mph67%29.74 "HgN/A
1:50 AM54 °FPartly cloudy.31 mph82%29.65 "HgN/A
1:20 AM54 °FPartly cloudy.31 mph82%29.65 "HgN/A
12:20 AM54 °FPassing clouds.24 mph82%29.65 "HgN/A
11:50 PM
Mon, Mar 30
54 °FPassing clouds.21 mph82%29.65 "HgN/A
11:20 PM54 °FPassing clouds.21 mph82%29.68 "HgN/A
Weather by CustomWeather, © 2015

See weather overviewHow to use our weather pages